Hourly Weather Alio

Today, 25 November, Wednesday

Time Temperature Precipitation Wind Pressure Humidity
00:00 +11°C° 0 mm 1 mps 739 mmHg 86%
01:00 +11°C° 0 mm 1 mps 739 mmHg 86%
02:00 +11°C° 0 mm 1 mps 738 mmHg 86%
03:00 +11°C° 0 mm 1 mps 738 mmHg 87%
04:00 +11°C° 0 mm 1 mps 738 mmHg 87%
05:00 +11°C° 0 mm 1 mps 738 mmHg 87%
06:00 +12°C° 0 mm 1 mps 738 mmHg 88%
07:00 +12°C° 0.1 mm 1 mps 738 mmHg 86%
08:00 +13°C° 0.1 mm 2 mps 738 mmHg 84%
09:00 +14°C° 0.1 mm 2 mps 738 mmHg 83%
10:00 +14°C° 0.2 mm 2 mps 738 mmHg 81%
11:00 +14°C° 0.2 mm 3 mps 738 mmHg 79%
12:00 +14°C° 0.2 mm 3 mps 737 mmHg 77%
13:00 +14°C° 0.1 mm 3 mps 737 mmHg 77%
14:00 +14°C° 0.1 mm 3 mps 737 mmHg 77%
15:00 +14°C° 0.1 mm 3 mps 736 mmHg 77%
16:00 +13°C° 0.1 mm 3 mps 737 mmHg 80%
17:00 +13°C° 0.1 mm 3 mps 737 mmHg 83%
18:00 +13°C° 0.1 mm 2 mps 737 mmHg 87%
19:00 +13°C° 0.1 mm 2 mps 737 mmHg 86%
20:00 +12°C° 0.1 mm 2 mps 738 mmHg 86%
21:00 +12°C° 0.1 mm 2 mps 738 mmHg 85%
22:00 +12°C° 0.1 mm 2 mps 738 mmHg 86%
23:00 +12°C° 0.1 mm 2 mps 738 mmHg 87%

Tomorrow, 26 November, Thursday

Time Temperature Precipitation Wind Pressure Humidity
00:00 +12°C° 0.1 mm 2 mps 738 mmHg 88%
01:00 +12°C° 0 mm 2 mps 737 mmHg 89%
02:00 +12°C° 0 mm 2 mps 737 mmHg 90%
03:00 +11°C° 0 mm 3 mps 737 mmHg 90%
04:00 +11°C° 0 mm 3 mps 737 mmHg 91%
05:00 +11°C° 0 mm 3 mps 737 mmHg 91%
06:00 +11°C° 0 mm 3 mps 737 mmHg 91%
07:00 +11°C° 0 mm 3 mps 737 mmHg 88%
08:00 +12°C° 0 mm 4 mps 738 mmHg 85%
09:00 +13°C° 0 mm 4 mps 738 mmHg 82%
10:00 +14°C° 0 mm 4 mps 737 mmHg 79%
11:00 +14°C° 0 mm 4 mps 737 mmHg 76%
12:00 +15°C° 0 mm 5 mps 737 mmHg 73%
13:00 +15°C° 0.1 mm 5 mps 737 mmHg 75%
14:00 +15°C° 0.1 mm 5 mps 737 mmHg 77%
15:00 +15°C° 0.1 mm 5 mps 736 mmHg 79%
16:00 +14°C° 0.2 mm 5 mps 736 mmHg 82%
17:00 +14°C° 0.2 mm 5 mps 736 mmHg 86%
18:00 +13°C° 0.2 mm 4 mps 736 mmHg 90%
19:00 +13°C° 0.2 mm 5 mps 737 mmHg 89%
20:00 +13°C° 0.2 mm 5 mps 737 mmHg 88%
21:00 +13°C° 0.2 mm 5 mps 737 mmHg 88%
22:00 +13°C° 0.1 mm 5 mps 737 mmHg 87%
23:00 +12°C° 0.1 mm 4 mps 736 mmHg 86%

Day after tomorrow, 27 November, Friday

Time Temperature Precipitation Wind Pressure Humidity
00:00 +12°C° 0.1 mm 4 mps 736 mmHg 85%
01:00 +12°C° 0.1 mm 4 mps 736 mmHg 84%
02:00 +12°C° 0.1 mm 4 mps 736 mmHg 83%
03:00 +12°C° 0.1 mm 4 mps 735 mmHg 82%
04:00 +12°C° 0.5 mm 5 mps 735 mmHg 84%
05:00 +12°C° 0.5 mm 5 mps 735 mmHg 85%
06:00 +12°C° 0.5 mm 5 mps 734 mmHg 87%
07:00 +12°C° 0.8 mm 5 mps 734 mmHg 86%
08:00 +11°C° 0.8 mm 6 mps 734 mmHg 86%
09:00 +13°C° 0.8 mm 6 mps 734 mmHg 85%
10:00 +12°C° 0.2 mm 7 mps 734 mmHg 81%
11:00 +14°C° 0.2 mm 7 mps 734 mmHg 77%
12:00 +13°C° 0.2 mm 8 mps 733 mmHg 73%
13:00 +13°C° 0.1 mm 8 mps 733 mmHg 72%
14:00 +13°C° 0.1 mm 8 mps 732 mmHg 72%
15:00 +13°C° 0.1 mm 8 mps 732 mmHg 72%
16:00 +13°C° 0.2 mm 8 mps 732 mmHg 75%
17:00 +12°C° 0.2 mm 8 mps 732 mmHg 79%
18:00 +12°C° 0.2 mm 8 mps 732 mmHg 82%
19:00 +12°C° 0.3 mm 7 mps 732 mmHg 82%
20:00 +12°C° 0.3 mm 7 mps 731 mmHg 81%
21:00 +13°C° 0.3 mm 6 mps 731 mmHg 80%
22:00 +11°C° 0.2 mm 6 mps 731 mmHg 79%
23:00 +11°C° 0.2 mm 6 mps 731 mmHg 79%

28 November, Saturday

Time Temperature Precipitation Wind Pressure Humidity
00:00 +11°C° 0.2 mm 6 mps 730 mmHg 78%
01:00 +11°C° 0 mm 6 mps 730 mmHg 79%
02:00 +11°C° 0 mm 6 mps 730 mmHg 80%
03:00 +10°C° 0 mm 6 mps 729 mmHg 80%
04:00 +11°C° 0 mm 6 mps 729 mmHg 80%
05:00 +11°C° 0 mm 6 mps 729 mmHg 79%
06:00 +12°C° 0 mm 5 mps 728 mmHg 79%
07:00 +12°C° 0 mm 5 mps 728 mmHg 78%
08:00 +12°C° 0 mm 5 mps 728 mmHg 78%
09:00 +13°C° 0 mm 5 mps 728 mmHg 78%
10:00 +13°C° 0.2 mm 5 mps 728 mmHg 78%
11:00 +13°C° 0.2 mm 5 mps 728 mmHg 79%
12:00 +13°C° 0.2 mm 5 mps 728 mmHg 79%
13:00 +13°C° 0.5 mm 5 mps 727 mmHg 79%
14:00 +13°C° 0.5 mm 5 mps 727 mmHg 80%
15:00 +13°C° 0.5 mm 5 mps 727 mmHg 80%
16:00 +12°C° 0.2 mm 5 mps 727 mmHg 81%
17:00 +12°C° 0.2 mm 5 mps 728 mmHg 81%
18:00 +12°C° 0.2 mm 4 mps 728 mmHg 82%
19:00 +12°C° 0.4 mm 4 mps 729 mmHg 83%
20:00 +12°C° 0.4 mm 4 mps 729 mmHg 84%
21:00 +12°C° 0.4 mm 4 mps 730 mmHg 85%
22:00 +12°C° 0.2 mm 4 mps 730 mmHg 84%
23:00 +12°C° 0.2 mm 3 mps 730 mmHg 83%

29 November, Sunday

Time Temperature Precipitation Wind Pressure Humidity
00:00 +12°C° 0.2 mm 3 mps 731 mmHg 82%
01:00 +12°C° 0.1 mm 3 mps 731 mmHg 80%
02:00 +12°C° 0.1 mm 3 mps 731 mmHg 79%
03:00 +12°C° 0.1 mm 3 mps 731 mmHg 77%
04:00 +12°C° 0 mm 3 mps 731 mmHg 77%
05:00 +11°C° 0 mm 3 mps 732 mmHg 77%
06:00 +11°C° 0 mm 3 mps 732 mmHg 77%
07:00 +12°C° 0 mm 3 mps 732 mmHg 74%
08:00 +12°C° 0 mm 3 mps 733 mmHg 71%
09:00 +13°C° 0 mm 3 mps 733 mmHg 68%
10:00 +14°C° 0 mm 3 mps 734 mmHg 64%
11:00 +16°C° 0 mm 3 mps 734 mmHg 60%
12:00 +17°C° 0 mm 3 mps 734 mmHg 55%
13:00 +17°C° 0 mm 2 mps 734 mmHg 55%
14:00 +17°C° 0 mm 2 mps 734 mmHg 56%
15:00 +17°C° 0 mm 2 mps 734 mmHg 56%
16:00 +15°C° 0 mm 1 mps 734 mmHg 61%
17:00 +14°C° 0 mm 1 mps 735 mmHg 67%
18:00 +13°C° 0 mm 1 mps 735 mmHg 72%
19:00 +13°C° 0 mm 1 mps 735 mmHg 74%
20:00 +12°C° 0 mm 1 mps 736 mmHg 75%
21:00 +12°C° 0 mm 1 mps 736 mmHg 77%
22:00 +12°C° 0 mm 1 mps 736 mmHg 77%
23:00 +12°C° 0 mm 1 mps 736 mmHg 77%

30 November, Monday

Time Temperature Precipitation Wind Pressure Humidity
00:00 +11°C° 0 mm 1 mps 736 mmHg 77%
01:00 +11°C° 0 mm 1 mps 736 mmHg 76%
02:00 +11°C° 0 mm 1 mps 736 mmHg 76%
03:00 +11°C° 0 mm 1 mps 737 mmHg 76%
04:00 +11°C° 0 mm 1 mps 737 mmHg 75%
05:00 +11°C° 0 mm 1 mps 736 mmHg 75%
06:00 +11°C° 0 mm 1 mps 736 mmHg 75%
07:00 +12°C° 0 mm 1 mps 737 mmHg 72%
08:00 +12°C° 0 mm 1 mps 737 mmHg 68%
09:00 +12°C° 0 mm 0 mps 737 mmHg 65%
10:00 +14°C° 0 mm 1 mps 737 mmHg 62%
11:00 +15°C° 0 mm 1 mps 737 mmHg 59%
12:00 +16°C° 0 mm 1 mps 737 mmHg 56%
13:00 +16°C° 0 mm 1 mps 737 mmHg 58%
14:00 +15°C° 0 mm 1 mps 737 mmHg 60%
15:00 +15°C° 0 mm 1 mps 737 mmHg 62%
16:00 +14°C° 0 mm 1 mps 737 mmHg 67%
17:00 +13°C° 0 mm 1 mps 737 mmHg 72%
18:00 +12°C° 0 mm 1 mps 737 mmHg 77%
19:00 +12°C° 0 mm 1 mps 737 mmHg 77%
20:00 +12°C° 0 mm 1 mps 737 mmHg 78%
21:00 +12°C° 0 mm 2 mps 738 mmHg 79%
22:00 +12°C° 0 mm 2 mps 738 mmHg 80%
23:00 +12°C° 0 mm 2 mps 738 mmHg 81%
Show more